User: anonymous   Login
Location: Dos Palmas
(32.4468°N, 116.8732°W)
Time: 06:38:41
(UTC+00:00)
Language:

Cosmos 1470 - Orbit

View from above orbital plane
View from above orbital plane
View from above satellite
View from above satellite

Ground track
Ground track

The orbit data is extracted from the following two-line orbital elements,

1 14147U 83061A   21265.38443040  .00000693  00000-0  38771-4 0  9995
2 14147  82.4830 307.4897 0014040 303.1115  56.8767 15.11803358839863
Epoch (UTC): 22 September 2021 09:13:34
Eccentricity: 0.0014040
inclination: 82.4830°
perigee height: 521 km
apogee height: 540 km
right ascension of ascending node: 307.4897°
argument of perigee: 303.1115°
revolutions per day: 15.11803358
mean anomaly at epoch: 56.8767°
orbit number at epoch: 83986

The dashed part of the orbit path shows where the satellite is in the earth's shadow,  

DLR